Teterboro, NJ

11:16 AM EST on November 18, 2019 (GMT -0500)
Teterboro

Weather History for KTEB - September, 2019

Change the Weather History Date:

Sunday, September 22, 2019

  Actual Average Record
Temperature  
Mean Temperature 74 °F -  
Max Temperature 91 °F 73 °F 91 °F (2010)
Min Temperature 59 °F 53 °F 39 °F (1997)
Cooling Degree Days 8    
Growing Degree Days 24 (Base 50)    
Moisture  
Dew Point 61 °F    
Average Humidity 64    
Maximum Humidity 87    
Minimum Humidity 43    
Precipitation  
Precipitation 0.00 in - - ()
Sea Level Pressure  
Sea Level Pressure 30.09 in    
Wind  
Wind Speed 3 mph ()    
Max Wind Speed 13 mph    
Max Gust Speed 21 mph    
Visibility 10.0 miles    
Events Fog    
Averages and records for this station are not official NWS values.
T = Trace of Precipitation, MM = Missing Value Source: Averaged Metar Reports

Daily Weather History Graph

Daily Weather History Graph

Search for Another Location

Airport or City:

Astronomy

Sep. 22, 2019 Rise Set
Actual Time 6:43 AM EDT 6:53 PM EDT
Civil Twilight 6:16 AM EDT 7:21 PM EDT
Nautical Twilight 5:44 AM EDT 7:53 PM EDT
Astronomical Twilight 5:11 AM EDT 8:25 PM EDT
Moon No Moon Rise 2:49 PM EDT (9/22)
Length of Visible Light 13h 05m
Length of Day
12h 10m
Last Quarter, 44% of the Moon is Illuminated
Sep 22
Last Quarter
Sep 28
New
Oct 5
First Quarter
Oct 13
Full
Oct 21
Last Quarter

Hourly Weather History & Observations

Time (EDT) Temp. Heat Index Dew Point Humidity Pressure Visibility Wind Dir Wind Speed Gust Speed Precip Events Conditions
12:51 AM 63.0 °F - 59.0 °F 87% 30.17 in 10.0 mi Calm Calm - N/A   Clear
1:51 AM 64.0 °F - 57.9 °F 80% 30.17 in 10.0 mi Calm Calm - N/A   Clear
3:51 AM 59.0 °F - 55.0 °F 87% 30.15 in 10.0 mi Calm Calm - N/A Fog Shallow Fog
4:51 AM 61.0 °F - 55.9 °F 83% 30.15 in 10.0 mi Calm Calm - N/A Fog Shallow Fog
5:51 AM 60.1 °F - 55.9 °F 86% 30.16 in 10.0 mi Calm Calm - N/A Fog Shallow Fog
6:51 AM 59.0 °F - 55.0 °F 87% 30.15 in 10.0 mi Calm Calm - N/A Fog Shallow Fog
7:51 AM 63.0 °F - 55.9 °F 78% 30.17 in 10.0 mi Calm Calm - N/A   Clear
8:51 AM 66.9 °F - 57.0 °F 70% 30.17 in 10.0 mi Calm Calm - N/A   Clear
9:51 AM 71.1 °F - 59.0 °F 66% 30.16 in 10.0 mi Calm Calm - N/A   Clear
10:51 AM 77.0 °F - 60.1 °F 56% 30.14 in 10.0 mi Variable 3.5 mph - N/A   Clear
11:51 AM 82.0 °F 82.4 °F 60.1 °F 47% 30.12 in 10.0 mi South 9.2 mph - N/A   Clear
12:51 PM 84.0 °F 84.4 °F 61.0 °F 46% 30.11 in 10.0 mi South 11.5 mph - N/A   Clear
1:51 PM 87.1 °F 87.5 °F 62.1 °F 43% 30.08 in 10.0 mi SSE 11.5 mph 18.4 mph N/A   Clear
2:51 PM 86.0 °F 86.8 °F 63.0 °F 46% 30.05 in 9.0 mi South 11.5 mph 20.7 mph N/A   Clear
3:51 PM 88.0 °F 88.7 °F 63.0 °F 43% 30.03 in 10.0 mi South 12.7 mph - N/A   Clear
4:51 PM 86.0 °F 86.8 °F 63.0 °F 46% 30.02 in 10.0 mi SSE 9.2 mph - N/A   Clear
5:51 PM 84.0 °F 84.9 °F 63.0 °F 49% 30.01 in 10.0 mi South 8.1 mph - N/A   Clear
6:51 PM 81.0 °F 82.5 °F 64.0 °F 56% 30.01 in 10.0 mi South 9.2 mph - N/A   Clear
7:51 PM 79.0 °F - 64.9 °F 62% 30.01 in 10.0 mi South 8.1 mph - N/A   Clear
8:51 PM 81.0 °F 82.7 °F 64.9 °F 58% 30.01 in 10.0 mi SSW 9.2 mph 19.6 mph N/A   Clear
9:51 PM 78.1 °F - 64.9 °F 64% 30.01 in 10.0 mi South 9.2 mph - N/A   Clear
10:51 PM 75.9 °F - 64.9 °F 69% 30.00 in 10.0 mi South 6.9 mph - N/A   Clear
11:51 PM 75.0 °F - 64.0 °F 69% 29.99 in 10.0 mi South 6.9 mph - N/A   Clear